カタログに戻る

KUIPER-00569

運用中通信LEO
NORAD 69766·PAYLOAD·🇺🇸 United States

打ち上げ Jul 2, 2026 から Cape Canaveral Space Force Station

Loading…

次のパス (今後24時間)

TLE

最新Source: CelesTrak SupGP

元期: Sep 14, 2026, 21:28 UTC

1 69766C 26151D   26257.89451389  .00003700  00000+0  48440-3 0  2577
2 69766  51.9005 256.4676 0000786  42.6544 195.6484 14.79923666    19

AllMySatでKUIPER-00569をリアルタイム追跡

Download on the App Store